When you browse on this site, cookies collect data to enhance your experience and personalize the content and advertising you see.
Visit our Privacy Policy to learn more. By continuing to use the site, you agree to this use of cookies and data.
  • In Germany
  • List of Countries
  • For 7 days
  • Water Temperature
  • Weather Map
  • Weather Widgets
  • user-avatar
    Login

    Hourly Weather Newcastle

    Today, 23 August, Friday

    Time Temperature Precipitation Wind Pressure Humidity
    00:00 +9°C° 0 mm 6 mps 766 mmHg 66%
    01:00 +9°C° 0 mm 6 mps 766 mmHg 67%
    02:00 +8°C° 0 mm 6 mps 766 mmHg 68%
    03:00 +7°C° 0 mm 6 mps 766 mmHg 69%
    04:00 +7°C° 0 mm 6 mps 767 mmHg 72%
    05:00 +7°C° 0 mm 5 mps 767 mmHg 71%
    06:00 +6°C° 0 mm 5 mps 767 mmHg 71%
    07:00 +6°C° 0 mm 5 mps 768 mmHg 70%
    08:00 +8°C° 0 mm 4 mps 768 mmHg 64%
    09:00 +11°C° 0 mm 4 mps 768 mmHg 57%
    10:00 +14°C° 0 mm 3 mps 769 mmHg 53%
    11:00 +16°C° 0 mm 3 mps 768 mmHg 51%
    12:00 +18°C° 0 mm 2 mps 768 mmHg 48%
    13:00 +19°C° 0 mm 2 mps 767 mmHg 45%
    14:00 +19°C° 0 mm 2 mps 767 mmHg 47%
    15:00 +18°C° 0 mm 2 mps 767 mmHg 49%
    16:00 +19°C° 0 mm 1 mps 767 mmHg 51%
    17:00 +16°C° 0 mm 1 mps 767 mmHg 61%
    18:00 +13°C° 0 mm 2 mps 767 mmHg 72%
    19:00 +10°C° 0 mm 2 mps 767 mmHg 82%
    20:00 +9°C° 0 mm 2 mps 767 mmHg 85%
    21:00 +9°C° 0 mm 2 mps 767 mmHg 88%
    22:00 +8°C° 0 mm 2 mps 767 mmHg 86%
    23:00 +8°C° 0 mm 3 mps 767 mmHg 85%

    Tomorrow, 24 August, Saturday

    Time Temperature Precipitation Wind Pressure Humidity
    00:00 +8°C° 0 mm 3 mps 767 mmHg 84%
    01:00 +7°C° 0 mm 3 mps 766 mmHg 82%
    02:00 +7°C° 0 mm 3 mps 766 mmHg 83%
    03:00 +5°C° 0 mm 3 mps 766 mmHg 84%
    04:00 +5°C° 0 mm 3 mps 765 mmHg 85%
    05:00 +5°C° 0 mm 3 mps 765 mmHg 83%
    06:00 +5°C° 0 mm 4 mps 766 mmHg 81%
    07:00 +5°C° 0 mm 4 mps 766 mmHg 79%
    08:00 +9°C° 0 mm 5 mps 765 mmHg 65%
    09:00 +14°C° 0 mm 5 mps 765 mmHg 51%
    10:00 +17°C° 0 mm 6 mps 764 mmHg 37%
    11:00 +20°C° 0 mm 6 mps 764 mmHg 35%
    12:00 +22°C° 0 mm 6 mps 763 mmHg 33%
    13:00 +23°C° 0 mm 6 mps 762 mmHg 31%
    14:00 +23°C° 0 mm 6 mps 762 mmHg 33%
    15:00 +23°C° 0 mm 6 mps 761 mmHg 35%
    16:00 +23°C° 0 mm 5 mps 761 mmHg 37%
    17:00 +21°C° 0 mm 5 mps 761 mmHg 45%
    18:00 +19°C° 0 mm 4 mps 762 mmHg 52%
    19:00 +17°C° 0 mm 3 mps 762 mmHg 59%
    20:00 +16°C° 0 mm 3 mps 762 mmHg 63%
    21:00 +14°C° 0 mm 3 mps 762 mmHg 67%
    22:00 +13°C° 0 mm 3 mps 762 mmHg 70%
    23:00 +12°C° 0 mm 3 mps 762 mmHg 74%

    Day after tomorrow, 25 August, Sunday

    Time Temperature Precipitation Wind Pressure Humidity
    00:00 +12°C° 0 mm 3 mps 762 mmHg 77%
    01:00 +11°C° 0 mm 3 mps 761 mmHg 81%
    02:00 +11°C° 0 mm 3 mps 761 mmHg 83%
    03:00 +10°C° 0 mm 3 mps 761 mmHg 86%
    04:00 +10°C° 0 mm 3 mps 761 mmHg 88%
    05:00 +10°C° 0 mm 3 mps 761 mmHg 87%
    06:00 +10°C° 0 mm 3 mps 762 mmHg 86%
    07:00 +10°C° 0 mm 4 mps 762 mmHg 85%
    08:00 +13°C° 0 mm 4 mps 762 mmHg 71%
    09:00 +17°C° 0 mm 3 mps 762 mmHg 57%
    10:00 +20°C° 0 mm 3 mps 762 mmHg 43%
    11:00 +21°C° 0 mm 3 mps 762 mmHg 38%
    12:00 +24°C° 0 mm 2 mps 761 mmHg 32%
    13:00 +25°C° 0 mm 2 mps 761 mmHg 27%
    14:00 +24°C° 0 mm 3 mps 761 mmHg 35%
    15:00 +21°C° 0 mm 4 mps 761 mmHg 44%
    16:00 +19°C° 0 mm 5 mps 761 mmHg 53%
    17:00 +17°C° 0 mm 5 mps 762 mmHg 64%
    18:00 +15°C° 0 mm 5 mps 762 mmHg 74%
    19:00 +14°C° 0 mm 4 mps 763 mmHg 85%
    20:00 +14°C° 0.2 mm 4 mps 763 mmHg 87%
    21:00 +14°C° 0.2 mm 4 mps 764 mmHg 89%
    22:00 +13°C° 0.2 mm 3 mps 764 mmHg 91%
    23:00 +13°C° 0.2 mm 3 mps 764 mmHg 92%

    26 August, Monday

    Time Temperature Precipitation Wind Pressure Humidity
    00:00 +13°C° 0.2 mm 3 mps 764 mmHg 92%
    01:00 +12°C° 0.2 mm 3 mps 764 mmHg 92%
    02:00 +14°C° 0 mm 2 mps 764 mmHg 91%
    03:00 +14°C° 0 mm 2 mps 764 mmHg 90%
    04:00 +14°C° 0 mm 2 mps 764 mmHg 88%
    05:00 +14°C° 0.2 mm 1 mps 764 mmHg 89%
    06:00 +14°C° 0.2 mm 1 mps 764 mmHg 89%
    07:00 +14°C° 0.2 mm 1 mps 765 mmHg 90%
    08:00 +15°C° 0.1 mm 2 mps 765 mmHg 82%
    09:00 +17°C° 0.1 mm 2 mps 765 mmHg 75%
    10:00 +18°C° 0.1 mm 2 mps 765 mmHg 68%
    11:00 +18°C° 0.2 mm 3 mps 765 mmHg 69%
    12:00 +18°C° 0.2 mm 3 mps 764 mmHg 70%
    13:00 +18°C° 0.2 mm 3 mps 764 mmHg 71%
    14:00 +17°C° 0.3 mm 4 mps 764 mmHg 75%
    15:00 +17°C° 0.3 mm 4 mps 764 mmHg 78%
    16:00 +15°C° 0.3 mm 5 mps 764 mmHg 82%
    17:00 +14°C° 0.7 mm 5 mps 764 mmHg 86%
    18:00 +14°C° 0.7 mm 4 mps 765 mmHg 89%
    19:00 +13°C° 0.7 mm 4 mps 766 mmHg 93%
    20:00 +13°C° 0.9 mm 4 mps 766 mmHg 93%
    21:00 +13°C° 0.9 mm 5 mps 766 mmHg 94%
    22:00 +13°C° 0.9 mm 5 mps 766 mmHg 94%
    23:00 +13°C° 1.1 mm 5 mps 766 mmHg 94%

    27 August, Tuesday

    Time Temperature Precipitation Wind Pressure Humidity
    00:00 +13°C° 1.1 mm 4 mps 766 mmHg 95%
    01:00 +13°C° 1.1 mm 4 mps 766 mmHg 95%
    02:00 +13°C° 2 mm 4 mps 766 mmHg 95%
    03:00 +12°C° 2 mm 4 mps 766 mmHg 96%
    04:00 +12°C° 2 mm 4 mps 766 mmHg 96%
    05:00 +12°C° 1.2 mm 4 mps 766 mmHg 95%
    06:00 +12°C° 1.2 mm 4 mps 767 mmHg 94%
    07:00 +12°C° 1.2 mm 4 mps 767 mmHg 94%
    08:00 +13°C° 0.5 mm 4 mps 768 mmHg 93%
    09:00 +13°C° 0.5 mm 4 mps 768 mmHg 92%
    10:00 +13°C° 0.5 mm 4 mps 768 mmHg 91%
    11:00 +14°C° 0.5 mm 4 mps 767 mmHg 89%
    12:00 +14°C° 0.5 mm 4 mps 767 mmHg 87%
    13:00 +14°C° 0.5 mm 4 mps 767 mmHg 85%
    14:00 +14°C° 0.3 mm 4 mps 766 mmHg 81%
    15:00 +15°C° 0.3 mm 4 mps 766 mmHg 78%
    16:00 +15°C° 0.3 mm 4 mps 766 mmHg 75%
    17:00 +14°C° 0.1 mm 4 mps 767 mmHg 78%
    18:00 +14°C° 0.1 mm 4 mps 767 mmHg 80%
    19:00 +13°C° 0.1 mm 3 mps 768 mmHg 83%
    20:00 +13°C° 0 mm 3 mps 768 mmHg 84%
    21:00 +13°C° 0 mm 3 mps 768 mmHg 85%
    22:00 +12°C° 0 mm 3 mps 768 mmHg 85%
    23:00 +12°C° 0.1 mm 3 mps 768 mmHg 88%

    28 August, Wednesday

    Time Temperature Precipitation Wind Pressure Humidity
    00:00 +11°C° 0.1 mm 3 mps 767 mmHg 90%
    01:00 +12°C° 0.1 mm 2 mps 767 mmHg 92%
    02:00 +12°C° 0.1 mm 2 mps 767 mmHg 93%
    03:00 +12°C° 0.1 mm 2 mps 766 mmHg 93%
    04:00 +12°C° 0.1 mm 2 mps 766 mmHg 94%
    05:00 +12°C° 0.3 mm 2 mps 766 mmHg 94%
    06:00 +12°C° 0.3 mm 1 mps 767 mmHg 95%
    07:00 +12°C° 0.3 mm 1 mps 767 mmHg 95%
    08:00 +14°C° 0 mm 1 mps 766 mmHg 87%
    09:00 +16°C° 0 mm 2 mps 766 mmHg 79%
    10:00 +18°C° 0 mm 2 mps 765 mmHg 72%
    11:00 +19°C° 0.1 mm 2 mps 765 mmHg 69%
    12:00 +19°C° 0.1 mm 3 mps 764 mmHg 66%
    13:00 +20°C° 0.1 mm 3 mps 763 mmHg 63%
    14:00 +20°C° 0.2 mm 4 mps 762 mmHg 65%
    15:00 +19°C° 0.2 mm 4 mps 762 mmHg 67%
    16:00 +19°C° 0.2 mm 4 mps 761 mmHg 69%
    17:00 +17°C° 0 mm 4 mps 762 mmHg 77%
    18:00 +14°C° 0 mm 4 mps 762 mmHg 84%
    19:00 +12°C° 0 mm 4 mps 763 mmHg 92%
    20:00 +12°C° 0 mm 4 mps 763 mmHg 92%
    21:00 +12°C° 0 mm 4 mps 763 mmHg 91%
    22:00 +11°C° 0 mm 3 mps 763 mmHg 90%
    23:00 +11°C° 0 mm 3 mps 763 mmHg 86%
    Show more